Probability
0 0 1 2 2 1 0 0 0 0 1 2 4 9 11 12 15 14 12 12 11 11 14 15 13 13 14 14 13 11 8 7 8 9 9 7 4 1 0 0 0 0 0 0
0 0 0 1 1 0 0 0 0 0 1 1 4 9 11 12 14 12 11 12 12 13 16 16 13 13 15 15 14 13 10 8 8 8 8 6 3 1 1 0 0 0 0 0
0 0 0 0 0 0 0 0 0 0 0 1 4 8 11 12 11 8 8 12 14 15 17 16 14 14 16 16 15 14 11 8 7 6 5 4 3 2 2 1 0 0 0 0
0 0 0 0 0 0 0 0 0 0 0 1 3 6 9 11 10 7 7 11 14 14 14 15 15 16 17 17 16 14 11 8 6 4 4 3 3 2 2 1 0 0 0 0
0 0 0 0 0 0 0 0 0 0 0 0 1 3 5 7 9 8 7 9 11 10 11 13 15 17 18 18 19 18 15 11 8 6 5 4 3 1 1 0 0 0 0 0
0 0 0 0 0 0 0 0 0 0 0 0 0 1 2 4 6 6 6 8 9 8 9 11 14 17 18 18 20 20 18 14 11 8 7 5 3 1 0 0 0 0 0 0
0 0 0 0 0 0 0 0 0 0 0 0 0 0 1 2 3 3 5 8 9 9 10 11 14 17 18 19 19 19 17 14 12 9 7 5 3 1 0 0 0 0 0 0
0 0 0 0 0 0 0 0 0 0 0 0 0 0 1 2 2 2 5 9 10 11 13 14 15 18 19 18 18 17 15 13 12 10 8 6 4 1 0 0 0 0 0 0
0 0 0 0 0 0 0 0 0 0 0 0 0 0 2 4 4 5 8 10 11 14 16 16 16 17 17 16 15 15 14 14 13 12 11 8 6 4 2 1 1 0 0 0
0 0 0 0 0 0 0 0 0 0 0 0 0 0 2 6 8 9 10 10 12 16 19 18 16 15 14 13 13 14 15 15 14 14 12 11 9 6 5 4 3 2 1 0
0 0 0 0 0 0 0 0 0 0 0 0 0 0 1 5 9 10 8 8 11 15 17 17 15 13 11 10 11 13 15 15 15 14 13 12 11 9 8 7 6 5 3 2
0 0 0 0 0 0 0 0 0 0 0 0 0 0 2 5 8 8 7 7 10 12 13 13 13 11 8 7 8 10 13 14 14 14 14 14 12 11 10 9 8 6 5 5
0 0 0 0 0 0 0 0 0 0 0 0 0 0 2 5 8 8 8 9 10 11 11 10 10 8 7 6 7 9 10 11 11 13 14 14 12 11 10 9 8 6 6 6
0 0 0 0 0 0 0 0 0 0 0 0 0 0 1 5 8 10 10 10 11 12 12 11 8 7 6 8 9 9 8 8 9 11 13 13 11 10 9 9 8 7 7 6
0 0 0 0 0 0 0 0 0 0 0 0 0 0 1 4 8 11 12 11 10 11 12 12 10 8 7 8 9 9 8 7 8 10 11 10 9 9 10 10 10 9 9 9
0 0 0 0 0 0 0 0 0 0 0 0 0 0 2 5 9 13 13 10 8 9 12 13 12 9 7 6 8 10 9 7 7 7 7 7 7 8 11 12 12 12 12 11
0 0 0 0 0 0 0 0 0 0 0 0 0 1 4 7 10 12 11 9 8 9 12 14 12 8 6 5 7 9 9 8 7 6 5 5 6 8 12 13 13 12 12 12
0 0 0 0 0 0 0 0 0 1 2 2 2 2 4 7 9 10 10 9 9 11 14 15 12 8 6 6 7 10 11 11 10 8 6 6 7 9 11 12 11 11 10 10
0 0 0 0 0 0 0 0 0 1 3 4 4 3 4 7 8 8 10 12 12 13 16 17 15 12 10 10 11 13 14 14 12 10 8 7 7 9 10 9 8 8 8 8
0 0 0 0 0 0 0 0 0 1 2 4 5 4 4 6 7 8 12 15 15 16 18 19 18 16 15 14 14 14 14 13 11 10 8 7 7 8 8 6 6 6 6 6
0 0 0 0 0 0 1 1 1 1 2 4 5 5 5 7 8 11 16 19 18 18 21 22 21 18 15 13 12 12 11 11 9 8 7 7 7 7 6 5 5 5 5 3
0 0 0 0 0 0 2 3 3 2 4 6 6 5 7 10 12 16 19 22 22 24 25 23 19 15 12 9 9 9 8 7 6 6 6 6 7 6 5 4 4 4 3 1
0 0 0 0 1 2 3 4 4 4 5 7 8 7 8 11 14 18 21 24 27 29 26 19 13 10 8 7 7 7 6 4 4 4 4 4 5 5 4 4 3 3 1 0
0 0 0 1 3 3 3 3 3 5 6 8 9 8 10 13 16 19 22 26 28 28 23 14 9 8 6 6 6 5 4 3 3 4 4 4 4 4 3 3 2 2 1 0
0 0 1 1 2 3 3 3 3 4 7 8 8 8 10 14 17 20 22 25 26 25 18 11 7 5 5 4 4 4 3 3 3 4 4 4 3 3 3 1 1 1 0 0
0 1 2 2 1 1 2 2 3 5 6 6 7 7 9 14 17 19 21 23 24 23 17 10 5 4 4 4 3 3 3 2 3 4 4 3 3 3 2 1 0 0 0 0
Wind_Speed
2 2 4 8 7 6 4 3 4 5 4 3 4 4 4 6 7 8 8 8 8 7 6 6 7 7 6 4 4 3 2 1 1 1 1 1 1 1 1 1 1 1 1 1
4 5 11 7 4 1 2 2 2 4 1 3 4 3 4 7 9 10 11 10 9 7 6 6 6 6 5 5 4 3 2 1 1 1 1 1 1 0 0 1 1 1 1 1
6 9 6 3 2 1 3 4 4 3 1 4 5 2 2 4 4 5 8 9 9 11 10 8 7 6 6 5 5 4 2 2 1 2 2 2 2 2 2 1 1 1 1 1
5 7 4 2 3 3 4 5 4 3 3 1 3 1 4 4 2 3 5 7 8 8 8 8 7 6 6 5 4 4 3 2 2 2 3 3 2 1 1 1 1 1 1 1
6 4 2 3 5 3 4 1 2 2 4 2 3 2 5 1 3 4 5 7 9 8 9 9 9 8 7 6 5 4 3 3 3 3 3 3 2 1 0 1 1 1 1 1
7 5 3 4 3 2 1 5 6 6 5 2 3 3 4 4 6 5 6 8 9 9 9 8 7 7 6 5 5 5 4 3 3 3 3 3 2 2 1 1 1 1 1 1
6 6 4 2 1 3 4 6 5 6 4 3 2 2 6 6 5 7 8 9 9 9 8 7 8 8 7 7 6 5 5 3 2 3 2 2 2 2 2 1 0 0 1 1
3 6 5 2 4 3 1 8 7 4 3 3 2 2 6 4 4 4 6 8 9 8 7 7 8 8 8 8 7 6 5 4 3 3 2 2 2 1 1 1 1 1 0 1
5 6 5 3 2 5 1 1 7 8 2 1 2 3 5 0 2 4 5 6 7 8 8 7 7 7 8 8 7 7 7 5 4 3 3 2 2 1 1 1 1 1 0 0
6 2 5 3 3 2 4 5 5 6 4 0 2 2 4 3 2 3 6 7 6 7 6 6 6 6 6 6 6 6 6 5 4 4 3 3 2 2 2 1 1 1 0 0
4 4 4 3 1 2 1 2 5 5 6 6 2 6 6 7 6 5 5 6 7 8 7 6 5 5 5 5 6 6 5 4 4 3 2 2 2 2 1 1 1 1 0 0
3 6 2 5 5 3 3 4 6 5 2 4 4 6 4 5 6 6 6 6 7 7 6 6 5 4 4 5 5 5 5 5 4 4 3 2 1 1 1 1 1 1 0 0
4 6 2 6 8 6 3 1 3 6 5 4 4 4 2 3 4 5 7 7 7 7 6 5 5 5 5 5 5 5 5 5 4 3 3 2 1 1 1 1 1 0 0 0
7 5 7 7 6 3 2 3 1 6 4 3 5 5 2 4 5 5 6 7 7 7 6 6 5 5 5 5 5 5 5 4 4 3 3 2 1 2 2 1 1 1 1 0
7 4 2 3 3 2 1 1 1 3 5 6 6 6 7 8 8 8 7 7 7 5 5 6 6 5 4 4 4 4 3 3 4 4 3 2 1 1 1 1 1 1 1 1
5 4 2 3 2 2 1 2 1 2 3 4 5 3 4 5 4 5 6 7 6 6 7 7 6 6 5 5 5 4 3 3 3 3 2 1 1 1 1 1 1 1 1 1
3 5 4 1 3 3 2 2 2 3 2 5 5 5 4 5 6 7 7 7 7 7 7 7 7 6 5 5 6 5 4 4 4 3 2 2 1 1 1 1 1 1 1 1
5 4 4 1 3 1 7 3 5 6 2 2 4 4 6 8 7 6 6 7 7 7 7 7 6 5 4 4 4 4 3 3 3 3 2 1 2 2 1 1 1 1 1 1
6 7 4 3 2 3 5 2 2 5 2 1 4 4 4 5 4 1 3 6 7 7 6 6 6 6 5 4 4 4 3 3 2 2 2 2 2 2 1 1 1 1 1 1
5 6 6 4 3 4 6 5 1 8 2 2 3 4 4 4 4 3 3 5 6 5 5 5 5 5 5 4 5 5 3 3 2 2 2 2 2 2 2 2 1 1 2 2
3 3 4 4 3 5 6 4 3 5 5 3 3 4 4 4 5 4 4 5 5 5 5 6 6 5 4 4 5 5 3 3 3 2 1 1 1 2 2 2 1 1 1 1
4 3 3 4 3 6 4 3 4 5 3 3 3 3 4 4 4 5 5 5 6 6 6 6 6 4 3 4 5 4 3 2 2 2 1 1 1 2 2 2 1 1 1 1
3 6 6 6 7 5 1 3 4 5 4 3 4 4 6 6 5 4 4 5 6 6 6 5 6 5 3 3 5 4 3 2 2 2 1 1 1 1 1 2 1 1 1 1
3 1 3 2 1 1 1 2 2 3 4 4 4 5 6 6 6 6 6 5 5 4 4 4 5 4 3 3 3 3 3 2 2 2 1 1 0 1 1 0 1 1 1 2
2 2 3 2 0 2 3 2 2 3 4 4 4 4 5 7 6 6 6 5 5 4 4 4 5 5 4 3 2 2 3 3 2 2 1 1 1 1 1 1 1 2 3 4
2 2 3 4 5 4 3 2 3 4 3 4 4 3 3 6 6 5 5 4 4 4 4 3 3 4 4 4 3 2 2 4 3 2 1 1 1 1 1 1 1 2 2 1
Wind_Direction
305 71 246 236 210 197 180 206 256 260 238 143 137 121 146 170 161 166 166 165 167 168 161 151 149 148 142 133 127 129 130 136 114 92 88 78 48 28 38 39 47 64 57 65
354 271 242 229 238 231 195 203 253 287 255 115 106 124 169 176 188 182 174 172 168 161 154 157 153 150 147 144 145 138 141 144 150 156 155 141 144 125 65 347 11 32 40 62
229 251 253 222 225 224 250 207 216 220 55 78 93 22 221 204 191 183 175 174 170 168 169 172 165 160 154 158 163 158 159 144 134 128 106 86 60 37 26 11 1 340 354 57
255 264 268 268 251 198 254 237 220 198 98 15 105 202 274 230 227 196 184 171 173 173 169 174 169 163 167 171 167 159 154 139 118 110 110 118 109 106 257 264 319 332 358 58
266 264 273 267 252 217 237 226 100 114 103 58 28 100 282 200 211 216 202 179 173 177 177 179 177 171 172 170 166 162 148 144 136 128 130 122 111 124 346 17 33 358 351 26
262 272 235 226 243 213 143 65 45 44 68 38 261 155 265 225 211 210 201 185 180 180 179 180 174 161 163 163 163 156 147 152 148 133 129 131 130 119 87 30 26 359 354 360
301 301 278 249 346 339 61 82 38 10 17 260 261 138 249 239 214 200 188 182 180 177 173 171 169 165 167 167 166 160 157 156 150 140 141 147 149 147 150 176 184 17 3 347
234 286 275 242 183 194 198 131 147 180 220 282 347 252 262 249 227 197 166 164 164 166 164 170 175 168 167 170 166 159 157 154 150 146 142 143 146 144 166 175 165 174 214 260
187 251 277 273 237 146 152 161 159 133 115 67 297 299 314 30 163 153 148 144 155 160 164 164 162 163 164 168 169 165 163 161 162 164 155 152 152 143 153 155 135 139 204 207
163 230 294 303 20 13 159 154 88 104 127 152 293 263 237 242 213 158 153 148 153 148 146 154 149 156 166 166 162 157 158 163 167 169 170 160 173 172 162 141 144 171 235 41
146 152 301 347 217 223 36 75 106 115 142 146 205 267 229 202 194 170 159 147 146 152 152 148 148 151 158 152 153 154 152 148 156 167 165 152 159 163 155 154 192 191 190 137
152 127 223 262 265 192 158 173 144 140 191 149 152 264 267 185 171 153 150 148 147 148 150 146 142 146 149 152 150 152 155 162 171 167 155 161 165 157 156 183 217 177 144 178
129 109 79 343 339 350 15 10 135 126 115 131 147 250 311 120 132 141 142 151 150 148 149 145 142 154 159 162 158 157 162 169 166 149 149 159 171 171 181 191 200 130 126 65
113 107 147 181 216 234 319 340 79 112 126 158 188 193 229 160 156 159 155 159 155 155 156 150 152 165 163 160 156 157 166 169 155 141 142 152 198 203 204 193 174 167 157 107
98 113 150 186 202 123 103 325 50 116 156 161 189 179 205 193 180 174 163 149 142 150 156 159 159 165 159 152 148 148 152 160 149 139 144 172 204 194 182 182 189 176 139 100
84 114 77 12 2 58 28 325 74 90 120 140 145 195 208 176 155 155 162 154 152 162 168 167 158 156 159 159 154 148 147 150 138 138 160 174 171 175 189 204 187 152 111 99
68 105 94 298 319 47 326 263 123 104 116 146 171 206 163 147 160 173 169 160 163 168 168 168 165 168 172 167 159 159 163 148 138 148 165 169 165 169 195 180 126 142 142 113
121 101 118 123 38 231 249 253 131 108 64 102 139 158 160 173 179 177 166 160 164 164 162 167 168 167 166 159 154 151 139 131 139 146 158 174 167 185 191 145 141 160 151 141
136 131 119 114 146 277 291 298 143 121 40 24 132 147 156 146 101 64 182 165 168 165 161 160 160 156 148 150 148 131 124 125 131 151 173 188 177 174 163 158 174 169 142 139
75 101 115 124 145 222 252 279 166 101 54 316 119 139 150 124 121 224 191 151 148 143 138 134 130 122 131 147 138 126 129 131 156 186 194 197 182 167 169 172 160 154 146 154
44 58 111 146 183 250 263 289 65 107 220 243 133 144 142 153 186 190 140 128 134 135 135 131 126 129 144 144 132 133 143 177 198 179 158 159 171 172 168 150 139 135 128 116
170 153 174 147 167 245 281 60 124 187 192 146 127 134 127 122 111 110 120 129 129 127 128 132 130 131 136 135 134 141 175 199 165 139 136 169 204 198 153 141 149 150 136 123
173 184 179 176 200 221 211 160 172 151 141 140 134 134 125 115 117 122 133 134 135 137 135 135 136 136 143 144 145 158 198 174 140 128 164 234 240 226 166 153 167 170 170 169
322 52 104 91 258 201 84 102 113 127 137 145 137 131 128 132 137 138 138 138 133 133 135 137 135 141 162 172 169 178 184 158 140 156 207 220 210 260 278 203 184 184 198 199
279 43 78 84 240 54 36 78 100 88 89 104 109 122 135 134 137 142 143 144 144 141 146 150 151 158 170 166 170 182 171 149 150 172 195 224 218 213 244 254 234 212 221 209
256 164 151 206 218 174 209 204 117 104 102 120 111 100 126 137 141 141 148 152 149 152 152 152 159 166 170 168 173 181 169 156 154 163 193 210 219 219 212 229 309 322 246 239